Location: Wolf Lake
(37.5042°N, 89.4384°W)
Time: 00:56:47
(UTC+00:00)

Daily predictions for brighter satellites

Satellite Brightness Start Highest point End
(mag) Time Altitude Azimuth Time Altitude Azimuth Time Altitude Azimuth
Cosmos 1486 Rocket 4.4 01:20:21 10° SSW 01:25:39 73° WNW 01:31:00 10° NNE
Cosmos 1745 Rocket 4.4 01:23:27 10° N 01:29:21 45° E 01:35:09 10° SSE
SL-4 R/B 3.1 01:25:58 10° WNW 01:30:06 43° SW 01:34:28 10° SSE
Cosmos 1844 4.3 01:26:56 10° SSW 01:32:38 66° WNW 01:38:17 10° NNE
SL-08 ROCKET BODY 4.3 01:30:54 10° N 01:36:47 79° E 01:42:37 10° S
Cosmos 1689 Rocket 4.5 01:37:36 10° NNW 01:40:00 26° WNW 01:42:23 10° SW
Cosmos 1242 Rocket 2.7 01:38:17 10° S 01:41:45 51° E 01:45:12 10° NNE
USA 186 1.1 01:39:53 10° S 01:42:22 81° W 01:44:44 10° NNW
Resurs 01 Rocket 3.1 01:41:40 10° ESE 01:44:54 21° ENE 01:48:13 10° NNE
GPS 2-04 Rocket1 2.8 01:40:58 10° WSW 01:45:04 62° S 01:49:07 10° E
S3M 4.0 01:39:42 10° S 01:46:03 76° E 01:52:23 10° N
X-37B 1.4 01:48:37 10° NW 01:51:42 44° NNE 01:54:18 13° E
Cosmos 2315 Rocket 4.3 01:50:43 10° SSE 01:56:45 47° E 02:02:49 10° NNE
Delta 2 Rocket 3.9 01:53:38 10° WSW 01:58:46 55° SSE 02:03:03 12° E
OBJECT-B 1.0 01:56:28 10° S 01:59:41 70° W 02:02:55 10° NNW
Cosmos 1805 Rocket 3.7 01:56:19 10° N 02:00:40 78° W 02:05:01 10° S
ERS-2 3.8 01:57:55 10° N 02:01:16 36° WNW 02:04:37 10° SW
Cosmos 1633 Rocket 3.6 02:01:01 10° N 02:05:10 39° E 02:07:58 18° SE
Cosmos 1328 Rocket 3.8 02:05:13 10° SSE 02:09:28 49° E 02:13:44 10° NNE
USA 267 3.9 02:03:15 10° SSE 02:09:34 50° SW 02:15:55 10° NW
ISS -2.7 02:11:06 10° S 02:13:26 24° SSE 02:13:26 24° SSE
Cosmos 1777 Rocket 3.9 02:10:30 10° S 02:15:39 69° ESE 02:20:49 10° NNE
USA 290 3.4 02:14:10 10° NW 02:17:12 39° WSW 02:19:47 13° S
Cosmos 1470 Rocket 4.5 02:15:41 10° NNE 02:19:44 32° ENE 02:21:26 24° ESE
Cosmos 2082 Rocket 3.9 02:16:35 10° N 02:20:30 19° NE 02:23:13 14° E
Meteor 1-26 Rocket 4.2 02:14:57 10° S 02:20:39 89° W 02:26:12 10° N
Ariane Rocket 3.0 02:16:50 12° S 02:21:32 82° WSW 02:26:37 10° NNW
Cosmos 1602 3.6 02:19:39 10° N 02:23:32 80° E 02:25:55 22° SSE
Cosmos 1437 2.3 02:25:45 24° S 02:27:17 87° WNW 02:30:07 10° N
Tianhe-1 1.5 02:25:26 10° SW 02:28:15 40° SSE 02:28:15 40° SSE
Resurs 1-3 3.9 02:27:18 15° S 02:30:50 67° W 02:35:12 10° NNW
IRIS 3.6 02:29:25 10° WNW 02:31:46 83° NNE 02:32:05 64° E
ARIANE 5 R/B 4.0 02:31:08 20° E 02:32:03 21° ENE 02:35:19 10° NNE
OAO 3 Rocket 3.6 02:28:40 10° SW 02:32:59 38° SSE 02:34:13 32° SE
COSMOS 2406 3.7 02:28:50 10° N 02:34:18 46° ENE 02:36:56 28° ESE
Cosmos 1782 3.3 02:30:44 10° SSW 02:34:40 59° W 02:38:37 10° N
Cosmos 1666 Rocket 3.7 02:31:18 10° NNW 02:35:39 72° W 02:38:36 20° S
DELTA 2 R/B (1) 4.3 02:30:44 10° W 02:35:54 39° SSW 02:38:23 25° SSE
Cosmos 1943 Rocket 4.2 02:39:12 12° ENE 02:39:12 12° ENE 02:39:59 10° ENE
Cosmos 1812 2.7 02:37:33 36° SSE 02:38:56 61° E 02:42:45 10° NNE
SJ 16-02 1.3 02:36:32 22° S 02:39:16 60° ESE 02:43:39 10° NNE
Cosmos 2278 Rocket 2.2 02:35:08 10° SSW 02:40:47 87° WNW 02:46:29 10° NNE
Meteor 1-14 Rocket 4.2 02:38:00 10° N 02:43:49 74° E 02:46:52 29° SSE
Meteor 2-6 Rocket 4.1 02:41:00 23° S 02:44:20 63° E 02:49:46 10° NNE
Iridium 4 Rocket 4.3 02:42:49 30° SE 02:44:57 42° E 02:50:28 10° NNE
Cosmos 1666 3.6 02:42:16 10° NNE 02:45:30 31° ENE 02:45:30 31° ENE
Landsat 7 3.7 02:45:52 33° SSE 02:47:59 79° ENE 02:52:45 10° N
Cosmos 1151 Rocket 4.4 02:48:01 10° SSW 02:52:05 39° W 02:56:13 10° N
Meteor 1-27 Rocket 4.5 02:52:26 32° ESE 02:53:28 35° E 02:58:44 10° NNE
USA 305 4.0 02:52:32 10° NNW 02:56:28 35° NE 02:57:39 29° ENE
ATLAS 5 CENTAUR R/B 3.3 02:51:29 10° NW 02:57:10 43° WSW 03:01:21 21° S
CZ-4C R/B 3.0 02:52:48 10° NNW 03:00:25 84° ENE 03:04:45 33° SE
NOSS 3-4 (A) 4.4 02:56:47 10° NNW 03:03:39 49° NE 03:07:09 30° ESE
NOSS 3-4 (C) 4.4 02:56:54 10° NNW 03:03:45 49° NE 03:07:15 30° ESE
IGS 5A 4.0 03:03:40 34° SSW 03:05:07 53° W 03:09:11 10° NNW
SPOT 1/Viking Rocket 3.5 03:03:30 44° SSE 03:05:13 79° ENE 03:10:25 10° N
Cosmos 1500 4.1 03:12:20 10° NNW 03:15:53 41° W 03:16:32 37° WSW
USA 306 3.4 03:11:54 10° NW 03:16:03 48° NE 03:16:25 46° ENE
ATLAS 2AS CENTAUR R/B 3.8 03:10:16 10° NNW 03:16:51 35° NE 03:19:41 26° E
Cosmos 2154 Rocket 4.4 03:11:17 10° N 03:17:19 46° ENE 03:18:30 41° ESE
Cosmos 1833 Rocket 2.7 03:14:25 10° NNW 03:20:04 72° WSW 03:21:40 47° S
SPOT 3 Rocket 4.4 03:18:17 26° SSW 03:20:42 43° W 03:25:37 10° NNW
Resurs 01 Rocket 3.1 03:19:13 22° SW 03:21:09 32° W 03:25:08 10° NNW
Cosmos 2228 Rocket 3.0 03:21:24 71° E 03:21:24 71° E 03:25:43 10° NNE
Nadezhda 1 Rocket 4.0 03:21:49 48° SSE 03:23:25 64° E 03:29:35 10° NNE
Cosmos 2184 Rocket 3.9 03:18:09 10° N 03:24:21 79° E 03:26:01 51° SSE
GPS 2-04 Rocket1 3.5 03:20:21 10° W 03:23:21 43° WSW 03:23:21 43° WSW
Cosmos 1536 4.1 03:21:54 10° N 03:24:37 31° NE 03:24:37 31° NE
Cosmos 2074 Rocket 3.9 03:19:56 10° N 03:26:17 85° E 03:28:08 49° SSE
Meteor 1-11 Rocket 3.8 03:21:12 10° N 03:27:08 65° E 03:28:07 56° SE
X-37B 3.1 03:25:29 10° W 03:26:35 17° W 03:26:35 17° W
Spot 2 Rocket 3.4 03:28:10 64° S 03:28:57 84° WSW 03:34:01 10° NNW
Cosmos 1538 Rocket 4.2 03:24:14 10° NNW 03:29:31 66° WSW 03:30:36 52° SSW
ERS-1 Rocket 2.9 03:29:55 63° E 03:30:13 65° ENE 03:35:12 10° N
Cosmos 1937 Rocket 4.3 03:33:12 35° ENE 03:33:12 35° ENE 03:36:45 10° NNE
Delta 2 Rocket 4.2 03:36:11 10° W 03:39:54 48° WSW 03:39:54 48° WSW
Cosmos 2297 3.5 03:42:09 72° SE 03:42:22 74° ESE 03:48:03 10° NNE
Cosmos 1869 Rocket 3.9 03:38:53 10° N 03:42:25 56° NNE 03:42:25 56° NNE
USA 307 3.3 03:39:24 10° NW 03:42:59 60° NNW 03:42:59 60° NNW
Cosmos 1680 Rocket 3.8 03:39:51 10° N 03:44:59 53° ENE 03:44:59 53° ENE
Cosmos 967 Rocket 4.3 03:45:38 50° SSW 03:47:27 86° ESE 03:53:45 10° NNE
Cosmos 1271 Rocket 4.3 03:46:58 29° W 03:47:36 31° WNW 03:51:12 10° NNW
Cosmos 1610 Rocket 4.3 03:43:34 10° N 03:49:44 82° E 03:50:26 70° SSE
Milstar 3 3.6 03:41:17 10° WSW 03:54:47 51° S 03:56:12 48° SSE
Terra 2.0 03:56:00 67° NNE 03:56:00 67° NNE 04:00:11 10° N
USA 308 3.8 03:53:07 10° NW 03:56:12 46° NW 03:56:12 46° NW
H-2A R/B 4.4 03:54:46 10° N 03:57:46 46° N 03:57:46 46° N
Cosmos 44 4.1 03:54:22 10° NNW 03:59:24 47° NE 03:59:24 47° NE
Cosmos 2082 Rocket 2.4 03:59:28 10° NNW 04:05:00 60° WSW 04:05:04 60° WSW
ARIANE 5 R/B 4.1 04:08:41 29° W 04:08:41 29° W 04:12:07 10° NW
Cosmos 1295 Rocket 4.4 04:05:05 10° N 04:11:26 77° W 04:11:59 72° SW
SPOT 5 3.6 04:12:49 49° W 04:12:49 49° W 04:17:48 10° NNW
Cosmos 1818 4.4 04:09:12 10° NNW 04:14:10 42° NE 04:14:10 42° NE
Cosmos 1898 Rocket 4.1 04:14:18 50° W 04:14:53 52° WNW 04:20:06 10° N
Cosmos 2341 Rocket 4.0 04:09:49 10° N 04:16:10 70° E 04:16:10 70° E
SJ 16-02 4.3 04:16:36 10° W 04:18:15 12° WNW 04:19:54 10° NW
Cosmos 1943 Rocket 2.3 04:20:39 72° NW 04:20:39 72° NW 04:26:05 10° NNE
Cosmos 2218 Rocket 4.4 04:20:55 10° N 04:26:40 53° ENE 04:26:40 53° ENE
Cosmos 2369 Rocket 2.9 04:33:00 46° NE 04:33:00 46° NE 04:36:58 10° NNE
SL-8 Rocket 4.0 04:39:23 10° N 04:45:15 77° NNW 04:45:15 77° NNW
Cosmos 1238 Rocket 4.2 04:41:08 10° N 04:45:44 54° NNW 04:45:44 54° NNW
Gbstr 26 Del rocket 4.3 04:56:29 10° NW 05:03:26 60° NNE 05:03:26 60° NNE
ATLAS 2AS CENTAUR R/B 3.3 05:01:11 10° NW 05:07:06 46° W 05:07:06 46° W
Meteor 2-4 Rocket 4.3 05:12:55 54° N 05:12:55 54° N 05:17:15 10° N
Cosmos 1821 Rocket 4.3 05:40:15 10° N 05:45:32 63° NNW 05:45:32 63° NNW
SeaSat 1 4.0 05:58:30 10° NNE 06:01:03 31° NE 06:01:03 31° NE
ATLAS CENTAUR R/B 4.3 06:06:18 13° N 06:06:18 13° N 06:06:53 10° N
Cosmos 2369 Rocket 4.4 06:14:45 15° WNW 06:15:57 16° NW 06:19:25 10° NNW
Lacrosse 5 3.3 06:27:22 36° N 06:27:22 36° N 06:30:37 10° NNE
CZ-2D R/B 4.0 06:29:58 10° NE 06:33:07 21° E 06:33:07 21° E
Resurs 1-4 Rocket 3.8 06:35:57 10° NE 06:39:15 24° ENE 06:39:15 24° ENE
USA 215 3.8 06:39:06 28° E 06:42:26 54° NE 06:48:45 10° NW
USA 281 4.2 06:49:16 31° ESE 06:51:38 42° ENE 06:57:44 10° N
Cosmos 1605 Rocket 4.3 06:46:15 10° N 06:51:32 62° NW 06:51:32 62° NW
Cosmos 1980 Rocket 4.4 06:54:10 13° E 06:54:13 13° E 06:56:51 10° ENE
Cosmos 2227 Rocket 3.6 07:03:48 10° N 07:08:52 33° ENE 07:10:57 26° E
Cosmos 2297 Rocket 3.0 07:06:13 10° N 07:11:40 46° ENE 07:12:27 43° E
Cosmos 1656 3.9 07:26:41 63° NNW 07:26:41 63° NNW 07:31:28 10° NNE
Cosmos 1025 Rocket 4.4 07:31:57 35° ENE 07:31:57 35° ENE 07:35:11 10° NNE
Cosmos 2100 Rocket 3.9 07:26:11 10° N 07:32:32 90° W 07:32:47 84° S
Cosmos 2251 Rocket 3.7 07:28:29 10° NNW 07:33:17 67° NNE 07:33:17 67° NNE
Cosmos 2123 Rocket 4.1 07:33:54 59° SE 07:34:34 63° E 07:40:41 10° NNE
Cosmos 1802 Rocket 4.0 07:28:37 10° N 07:34:45 69° E 07:35:31 62° SE
Cosmos 614 Rocket 4.3 07:32:46 10° N 07:37:48 58° ENE 07:37:57 57° ENE
IDEFIX/ARIANE 42P 4.4 07:42:58 10° NE 07:47:07 23° E 07:48:53 20° ESE
COSMOS 2455 2.9 07:42:06 10° NNW 07:47:29 65° WNW 07:47:29 65° WNW
Cosmos 371 Rocket 4.0 07:48:59 46° NW 07:48:59 46° NW 07:52:57 10° N
Helios 1B rocket 3.5 07:44:57 10° N 07:47:45 42° N 07:47:45 42° N
Cosmos 332 Rocket 4.0 07:53:44 67° NNW 07:53:44 67° NNW 07:58:03 10° NNE
Cosmos 2219 3.0 07:50:35 10° NNW 07:56:19 86° WSW 07:56:43 78° S
SL-16 R/B 2.4 08:00:36 64° SSW 08:01:30 74° WSW 08:07:47 10° NNW
Lacrosse 4 Rocket 1.8 08:02:37 66° NNE 08:02:37 66° NNE 08:06:28 10° NNE
Cosmos 1544 Rocket 3.7 08:00:28 10° N 08:04:39 69° ENE 08:04:39 69° ENE
Cosmos 1953 3.4 08:01:52 10° N 08:04:27 39° NNW 08:04:27 39° NNW
ADEOS II 2.1 08:00:56 10° NNE 08:06:12 73° ESE 08:06:53 64° SSE
Lacrosse 5 4.4 08:07:07 10° NW 08:09:41 14° NNW 08:12:15 10° N
AQUA 3.9 08:06:37 10° N 08:11:12 66° WNW 08:11:12 66° WNW
SL-08 R/B 4.4 08:05:13 10° N 08:11:37 85° W 08:13:31 49° S
NPP 3.8 08:08:25 10° N 08:13:39 54° WNW 08:14:01 53° W
CZ-2D R/B 2.7 08:09:10 10° N 08:14:13 43° WNW 08:14:26 42° WNW
Cosmos 1455 Rocket 4.0 08:10:40 10° NNW 08:13:38 37° NW 08:13:38 37° NW
ADEOS Rocket 3.8 08:12:28 12° SSE 08:19:18 67° ENE 08:27:01 10° N
Meteor 1-29 4.4 08:16:11 10° N 08:18:11 31° NNW 08:18:11 31° NNW
Resurs 1-4 Rocket 2.9 08:15:20 10° N 08:20:06 36° WNW 08:20:20 36° WNW
Cosmos 1536 Rocket 3.5 08:20:10 78° SE 08:20:20 80° E 08:24:46 10° N
BREEZE-M DEB (TANK) 3.8 08:19:53 34° WNW 08:21:52 53° NNW 08:34:52 10° ENE
Meteor 2-5 Rocket 4.0 08:21:34 39° SSE 08:23:40 65° E 08:29:15 10° NNE
Cosmos 1674 4.5 08:25:26 22° NW 08:25:26 22° NW 08:27:25 10° NNW
Cosmos 1697 Rocket 3.1 08:24:06 43° W 08:24:57 46° WNW 08:30:21 10° N
Cosmos 2360 4.4 08:24:06 49° WSW 08:25:06 56° WNW 08:30:46 10° NNE
USA 215 3.7 08:26:21 39° WSW 08:26:21 39° WSW 08:31:36 10° WNW
Cosmos 407 Rocket 3.5 08:21:51 10° NNW 08:27:14 86° ENE 08:29:42 33° SSE
Cosmos 1725 Rocket 4.0 08:21:52 10° NNW 08:28:01 62° W 08:29:35 47° SW
Atlas Centaur 2 4.0 08:28:29 24° SSE 08:29:18 25° SSE 08:34:43 10° ESE
GP-B 3.0 08:25:42 10° N 08:30:10 86° E 08:30:46 66° S
Meteor 1-16 Rocket 4.5 08:24:58 10° NNW 08:30:39 50° W 08:31:25 47° WSW
CZ-4C R/B 4.2 08:29:51 25° SE 08:32:04 52° ENE 08:36:08 10° N
Cosmos 1624 Rocket 4.0 08:32:24 55° SW 08:33:28 71° WNW 08:38:49 10° NNE
SL-14 R/B 3.3 08:34:44 63° NW 08:34:44 63° NW 08:38:24 10° N
CBERS-1 3.9 08:29:44 10° NNE 08:34:53 89° ESE 08:36:21 48° SSW
USA 281 3.8 08:36:07 34° WSW 08:36:07 34° WSW 08:42:00 10° NW
Cosmos 2233 Rocket 3.8 08:30:46 10° N 08:36:58 83° W 08:40:08 31° S
Cosmos 1980 Rocket 2.2 08:35:56 48° SW 08:37:29 73° WNW 08:43:10 10° NNE
CENTAUR R/B 4.3 08:34:15 10° SSE 08:38:09 20° ESE 08:42:35 10° ENE
Cosmos 1626 3.5 08:42:30 27° NW 08:42:30 27° NW 08:44:55 10° NNW
Cosmos 2016 Rocket 4.4 08:36:17 10° NNW 08:41:58 39° W 08:43:02 36° WSW
ISS -1.0 08:41:46 10° NNW 08:44:24 21° NNE 08:47:02 10° ENE
Spot 1 4.3 08:46:49 22° SSE 08:49:51 81° ENE 08:54:46 10° N
DELTA 2 DEB (DPAF) 4.3 08:51:43 48° SW 08:52:14 50° W 08:56:35 10° NNW
Cosmos 2227 Rocket 2.9 08:47:54 10° NW 08:52:41 31° W 08:52:41 31° W
Cosmos 1452 Rocket 4.0 08:49:49 24° S 08:52:49 55° ESE 08:57:58 10° NNE
Cosmos 2056 Rocket 4.0 08:53:58 36° WSW 08:55:16 43° WNW 09:00:10 10° N
Cosmos 2297 Rocket 3.6 08:51:03 10° NW 08:54:12 21° W 08:54:12 21° W
Cosmos 1954 Rocket 4.3 08:50:17 10° NNW 08:55:34 70° ENE 09:00:51 10° SSE
Cosmos 2285 Rocket 4.3 08:55:08 33° SW 08:57:51 55° WNW 09:04:11 10° N
Cosmos 220 Rocket 4.0 08:56:53 39° SSW 08:58:29 85° ESE 09:02:56 10° NNE
Cosmos 1300 2.6 08:55:19 10° NNW 08:59:05 65° W 08:59:48 51° SSW
Cosmos 2278 4.0 08:57:35 34° WSW 08:59:48 54° WNW 09:05:24 10° NNE
IRS-1C 4.1 09:01:30 10° NNE 09:06:51 82° WNW 09:10:04 25° SSW
Cosmos 1346 Rocket 3.8 09:04:05 16° SSE 09:06:54 43° E 09:10:37 10° NNE
CZ-2C R/B 4.0 09:03:09 10° NNE 09:07:51 34° E 09:12:31 10° SSE
Cosmos 2082 3.9 09:03:14 10° NW 09:08:40 47° WSW 09:12:48 17° S
OAO 2 Rocket 3.4 09:08:21 29° WSW 09:10:59 67° S 09:16:16 10° E
SL-16 R/B 2.6 09:08:41 17° S 09:12:57 59° ESE 09:18:32 10° NNE
Cosmos 1455 4.1 09:11:32 10° NNE 09:14:58 30° ENE 09:18:24 10° SE
MSX 3.8 09:09:27 10° N 09:15:13 75° WNW 09:19:17 20° SSW
Cosmos 1140 Rocket 4.2 09:16:39 10° NW 09:21:16 32° W 09:23:28 23° SW
SL-08 R/B 3.3 09:17:32 10° SSE 09:22:15 84° ENE 09:26:54 10° NNW
Cosmos 1892 Rocket 3.6 09:21:24 15° S 09:24:56 81° E 09:29:17 10° N
Cosmos 1340 3.7 09:24:28 25° W 09:25:14 27° WNW 09:28:28 10° NNW
IDEFIX/ARIANE 42P 3.2 09:21:54 10° N 09:26:46 39° WNW 09:29:42 21° SW
NOSS 3-2 (C) 4.1 09:24:42 11° S 09:29:40 44° ESE 09:35:21 10° NE
Cosmos 1072 Rocket 4.5 09:23:35 10° N 09:29:56 81° W 09:36:19 10° S
USA 32 4.3 09:32:12 10° N 09:37:29 73° E 09:42:43 10° S
Okean 1-7 Rocket 4.0 09:35:29 10° S 09:39:58 68° E 09:44:32 10° NNE
Cosmos 2322 Rocket 2.3 09:34:49 11° SSW 09:40:12 79° ESE 09:45:54 10° NNE
Meteor 2-10 Rocket 3.7 09:35:04 10° NNW 09:40:40 62° W 09:46:02 10° S
CZ-2C R/B 3.2 09:38:12 10° NNE 09:42:13 69° E 09:46:14 10° S
Cosmos 1891 Rocket 4.5 09:37:45 10° NNW 09:43:41 59° W 09:49:33 10° S
ADEOS II 4.0 09:42:44 10° NNW 09:45:13 14° WNW 09:47:43 10° W
ARIANE 5 R/B 3.0 09:41:13 10° N 09:46:03 43° WNW 09:50:05 14° SW
Cosmos 2058 Rocket 3.3 09:42:11 10° N 09:46:42 76° E 09:51:12 10° SSE
Cosmos 2263 Rocket 2.1 09:42:30 10° NNW 09:48:08 70° WSW 09:53:45 10° SSE
Cosmos 1726 Rocket 3.6 09:45:04 10° NNW 09:49:23 57° W 09:53:42 10° S
Cosmos 1606 Rocket 3.9 09:45:15 10° NNW 09:49:26 43° W 09:53:38 10° SSW
Cosmos 2228 3.7 09:47:16 10° NNW 09:51:07 33° W 09:54:59 10° SSW
NOSS 3-2 (A) 3.3 09:47:34 14° SW 09:52:12 68° NW 09:58:23 10° NNE
CZ-4B R/B 4.4 09:51:49 10° N 09:56:15 32° WNW 10:00:26 12° SW
Meteor 1-21 Rocket 4.2 09:53:04 10° S 09:58:41 84° W 10:04:15 10° N
Tsikada Rocket 4.1 09:56:11 10° S 10:02:35 82° W 10:08:59 10° N
Cosmos 2360 Rocket 2.5 09:57:17 10° S 10:02:53 68° ESE 10:08:31 10° NNE
Cosmos 2219 Rocket 4.4 09:58:57 10° SSE 10:03:23 24° E 10:07:50 10° NE
USA 238 DEB 3.7 09:59:35 10° SW 10:06:05 75° NW 10:12:53 10° NNE
USA 238 3.7 09:59:42 10° SW 10:06:11 75° NW 10:13:00 10° NNE
IRAS Rocket 4.4 10:01:24 10° SSE 10:06:58 82° ENE 10:12:36 10° NNW
Cosmos 1241 Rocket 4.5 10:00:59 10° NNW 10:07:25 75° WSW 10:13:42 10° SSE
Aureole 2 Rocket 3.6 10:07:59 10° WNW 10:09:31 14° W 10:11:02 10° SW
Cosmos 2237 4.2 10:06:00 10° SSW 10:11:43 82° WNW 10:17:27 10° NNE
Cosmos 1441 Rocket 3.8 10:08:36 10° S 10:12:28 62° E 10:16:24 10° NNE
BREEZE-M DEB (TANK) 4.0 10:03:53 10° NW 10:14:23 49° SW 10:17:44 10° SSE
Cosmos 1602 Rocket 4.0 10:10:34 10° S 10:14:51 65° E 10:19:11 10° NNE
Atlas Centaur 2 3.2 10:11:25 10° WSW 10:18:15 40° S 10:23:48 10° ESE
